TimeCDT,TemperatureF,Dew PointF,Humidity,Sea Level PressureIn,VisibilityMPH,Wind Direction,Wind SpeedMPH,Gust SpeedMPH,PrecipitationIn,Events,Conditions,WindDirDegrees,DateUTC
12:15 AM,42.8,35.6,76,29.85,10.0,SW,8.1,-,N/A,,Clear,220,2013-11-01 05:15:00
12:35 AM,42.8,35.6,76,29.85,10.0,SSW,9.2,-,N/A,,Clear,200,2013-11-01 05:35:00
12:55 AM,42.8,35.6,76,29.85,10.0,SW,6.9,-,N/A,,Clear,220,2013-11-01 05:55:00
1:15 AM,42.8,35.6,76,29.86,10.0,SW,6.9,-,N/A,,Clear,230,2013-11-01 06:15:00
1:35 AM,42.8,35.6,76,29.86,10.0,SW,6.9,-,N/A,,Clear,230,2013-11-01 06:35:00
1:55 AM,42.8,35.6,76,29.86,10.0,SW,6.9,-,N/A,,Clear,230,2013-11-01 06:55:00
2:15 AM,41.0,35.6,81,29.87,10.0,SW,6.9,-,N/A,,Clear,230,2013-11-01 07:15:00
2:35 AM,41.0,35.6,81,29.87,10.0,SW,6.9,-,N/A,,Clear,230,2013-11-01 07:35:00
2:55 AM,42.8,35.6,76,29.87,10.0,SW,6.9,-,N/A,,Clear,230,2013-11-01 07:55:00
3:15 AM,42.8,35.6,76,29.87,10.0,SW,6.9,-,N/A,,Clear,230,2013-11-01 08:15:00
3:35 AM,41.0,35.6,81,29.87,10.0,WSW,3.5,-,N/A,,Clear,240,2013-11-01 08:35:00
3:55 AM,41.0,35.6,81,29.87,10.0,SW,6.9,-,N/A,,Clear,230,2013-11-01 08:55:00
4:15 AM,41.0,35.6,81,29.87,10.0,SW,6.9,-,N/A,,Clear,230,2013-11-01 09:15:00
4:35 AM,42.8,35.6,76,29.87,10.0,SW,6.9,-,N/A,,Clear,230,2013-11-01 09:35:00
4:55 AM,42.8,35.6,76,29.87,10.0,SW,8.1,-,N/A,,Clear,220,2013-11-01 09:55:00
5:15 AM,42.8,35.6,76,29.87,10.0,SW,8.1,-,N/A,,Clear,220,2013-11-01 10:15:00
5:35 AM,39.2,35.6,87,29.88,10.0,WSW,6.9,-,N/A,,Clear,240,2013-11-01 10:35:00
5:55 AM,37.4,33.8,87,29.89,10.0,West,6.9,-,N/A,,Clear,260,2013-11-01 10:55:00
6:15 AM,37.4,35.6,93,29.89,10.0,WSW,9.2,-,N/A,,Clear,240,2013-11-01 11:15:00
6:35 AM,37.4,33.8,87,29.91,10.0,WSW,3.5,-,N/A,,Clear,250,2013-11-01 11:35:00
6:55 AM,37.4,33.8,87,29.92,10.0,Calm,Calm,-,N/A,,Clear,0,2013-11-01 11:55:00
7:15 AM,37.4,33.8,87,29.92,10.0,Calm,Calm,-,N/A,,Clear,0,2013-11-01 12:15:00
7:35 AM,37.4,33.8,87,29.94,10.0,West,9.2,-,N/A,,Clear,280,2013-11-01 12:35:00
7:55 AM,37.4,33.8,87,29.94,10.0,West,5.8,-,N/A,,Clear,280,2013-11-01 12:55:00
8:15 AM,37.4,33.8,87,29.95,10.0,West,4.6,-,N/A,,Clear,260,2013-11-01 13:15:00
8:35 AM,37.4,33.8,87,29.96,10.0,WSW,5.8,-,N/A,,Clear,240,2013-11-01 13:35:00
8:55 AM,41.0,35.6,81,29.97,10.0,West,6.9,-,N/A,,Clear,270,2013-11-01 13:55:00
9:15 AM,44.6,37.4,76,29.99,10.0,West,5.8,-,N/A,,Clear,280,2013-11-01 14:15:00
9:35 AM,48.2,39.2,71,30.00,10.0,WNW,6.9,-,N/A,,Clear,290,2013-11-01 14:35:00
9:55 AM,51.8,37.4,58,30.01,10.0,WNW,8.1,-,N/A,,Clear,300,2013-11-01 14:55:00
10:15 AM,53.6,37.4,54,30.02,10.0,NW,11.5,-,N/A,,Clear,310,2013-11-01 15:15:00
10:35 AM,55.4,37.4,51,30.02,10.0,NW,11.5,-,N/A,,Clear,310,2013-11-01 15:35:00
10:55 AM,59.0,37.4,45,30.03,10.0,NW,16.1,-,N/A,,Clear,320,2013-11-01 15:55:00
11:15 AM,60.8,37.4,42,30.03,10.0,NW,16.1,21.9,N/A,,Clear,310,2013-11-01 16:15:00
11:35 AM,60.8,37.4,42,30.03,10.0,NNW,16.1,-,N/A,,Clear,330,2013-11-01 16:35:00
11:55 AM,60.8,35.6,39,30.04,10.0,NNW,17.3,26.5,N/A,,Clear,340,2013-11-01 16:55:00
12:15 PM,60.8,35.6,39,30.03,10.0,NNW,19.6,23.0,N/A,,Clear,340,2013-11-01 17:15:00
12:35 PM,62.6,33.8,34,30.04,10.0,NW,17.3,25.3,N/A,,Clear,320,2013-11-01 17:35:00
12:55 PM,62.6,33.8,34,30.04,10.0,NNW,19.6,24.2,N/A,,Clear,330,2013-11-01 17:55:00
1:15 PM,62.6,32.0,32,30.04,10.0,NW,16.1,26.5,N/A,,Clear,320,2013-11-01 18:15:00
1:35 PM,64.4,33.8,32,30.04,10.0,NW,18.4,25.3,N/A,,Clear,310,2013-11-01 18:35:00
1:55 PM,62.6,32.0,32,30.03,10.0,NW,16.1,28.8,N/A,,Clear,320,2013-11-01 18:55:00
2:15 PM,62.6,33.8,34,30.03,10.0,NW,23.0,29.9,N/A,,Clear,320,2013-11-01 19:15:00
2:35 PM,64.4,33.8,32,30.03,10.0,NW,20.7,26.5,N/A,,Clear,320,2013-11-01 19:35:00
2:55 PM,62.6,32.0,32,30.03,10.0,NW,20.7,27.6,N/A,,Clear,320,2013-11-01 19:55:00
3:15 PM,62.6,32.0,32,30.04,10.0,NNW,21.9,31.1,N/A,,Clear,330,2013-11-01 20:15:00
4:55 PM,62.6,32.0,32,30.07,10.0,NNW,15.0,28.8,N/A,,Clear,330,2013-11-01 21:55:00
5:15 PM,62.6,30.2,30,30.08,10.0,NNW,20.7,25.3,N/A,,Clear,330,2013-11-01 22:15:00
5:35 PM,62.6,28.4,27,30.08,10.0,NNW,20.7,26.5,N/A,,Clear,330,2013-11-01 22:35:00
5:55 PM,60.8,30.2,31,30.09,10.0,NNW,18.4,-,N/A,,Clear,330,2013-11-01 22:55:00
6:15 PM,60.8,30.2,31,30.09,10.0,NW,11.5,-,N/A,,Clear,320,2013-11-01 23:15:00
6:35 PM,59.0,30.2,34,30.09,10.0,NW,9.2,-,N/A,,Clear,320,2013-11-01 23:35:00
6:55 PM,55.4,28.4,36,30.10,10.0,NW,9.2,-,N/A,,Clear,320,2013-11-01 23:55:00
7:15 PM,51.8,30.2,44,30.12,10.0,NW,6.9,-,N/A,,Clear,310,2013-11-02 00:15:00
7:35 PM,51.8,28.4,41,30.12,10.0,WNW,6.9,-,N/A,,Clear,300,2013-11-02 00:35:00
7:55 PM,50.0,30.2,47,30.13,10.0,WNW,6.9,-,N/A,,Clear,300,2013-11-02 00:55:00
8:15 PM,48.2,30.2,50,30.13,10.0,WNW,5.8,-,N/A,,Clear,300,2013-11-02 01:15:00
8:35 PM,46.4,30.2,53,30.14,10.0,WNW,6.9,-,N/A,,Clear,290,2013-11-02 01:35:00
8:55 PM,46.4,30.2,53,30.15,10.0,WNW,5.8,-,N/A,,Clear,300,2013-11-02 01:55:00
9:15 PM,46.4,30.2,53,30.16,10.0,WNW,6.9,-,N/A,,Clear,300,2013-11-02 02:15:00
9:35 PM,46.4,30.2,53,30.17,10.0,WNW,5.8,-,N/A,,Clear,300,2013-11-02 02:35:00
9:55 PM,46.4,30.2,53,30.17,10.0,NW,8.1,-,N/A,,Clear,320,2013-11-02 02:55:00
10:15 PM,46.4,30.2,53,30.18,10.0,NW,8.1,-,N/A,,Clear,310,2013-11-02 03:15:00
10:35 PM,44.6,30.2,57,30.19,10.0,West,6.9,-,N/A,,Clear,270,2013-11-02 03:35:00
10:55 PM,41.0,32.0,70,30.20,10.0,West,8.1,-,N/A,,Clear,260,2013-11-02 03:55:00
11:15 PM,42.8,32.0,66,30.21,10.0,West,8.1,-,N/A,,Clear,260,2013-11-02 04:15:00
11:35 PM,42.8,30.2,61,30.21,10.0,WNW,8.1,-,N/A,,Clear,290,2013-11-02 04:35:00
11:55 PM,42.8,30.2,61,30.21,10.0,West,9.2,-,N/A,,Clear,270,2013-11-02 04:55:00